This is the latest recevied weather packets stored in our database for station/object DL3NDS-WX. If no packets are shown the sender has not sent any weather packets the latest 10 day(s).
| Time | Temp. | Humidity | Pressure | Rain* | Wind** | Luminosity | Snow |
|---|---|---|---|---|---|---|---|
| 1787899053 | 17.22° C | 90% | 1015.5 hPa | 0.25 mm | - | 165 W/m² | - |
| 1787898991 | 17.22° C | 90% | 1015.6 hPa | 0.25 mm | - | 243 W/m² | - |
| 1787898929 | 17.22° C | 90% | 1015.7 hPa | 0.25 mm | - | 206 W/m² | - |
| 1787898868 | 17.22° C | 90% | 1015.7 hPa | 0.25 mm | - | 209 W/m² | - |
| 1787898810 | 16.67° C | 90% | 1016 hPa | 0.25 mm | - | 186 W/m² | - |
| 1787898747 | 16.67° C | 89% | 1016 hPa | 0.25 mm | - | 167 W/m² | - |
| 1787898688 | 16.67° C | 89% | 1016.1 hPa | 0.25 mm | - | 144 W/m² | - |
| 1787898624 | 16.67° C | 88% | 1016.3 hPa | 0.25 mm | - | 123 W/m² | - |
| 1787898566 | 16.67° C | 88% | 1016.4 hPa | 0.25 mm | - | 113 W/m² | - |
| 1787898506 | 16.67° C | 88% | 1016.5 hPa | 0.25 mm | - | 109 W/m² | - |
| 1787898448 | 16.67° C | 88% | 1016.5 hPa | 0.25 mm | - | 102 W/m² | - |
| 1787898383 | 17.22° C | 88% | 1016.5 hPa | 0.25 mm | - | 95 W/m² | - |
| 1787898318 | 16.67° C | 87% | 1016.6 hPa | 0.25 mm | - | 88 W/m² | - |
| 1787898261 | 16.67° C | 87% | 1016.7 hPa | 0.25 mm | - | 81 W/m² | - |
| 1787898195 | 17.22° C | 87% | 1016.6 hPa | 0.25 mm | - | 76 W/m² | - |
| 1787898134 | 17.22° C | 87% | 1016.7 hPa | 0.25 mm | - | 63 W/m² | - |
| 1787898072 | 17.22° C | 86% | 1016.7 hPa | 0.25 mm | - | 58 W/m² | - |
| 1787898011 | 16.67° C | 86% | 1016.8 hPa | 0.25 mm | - | 53 W/m² | - |
| 1787897951 | 17.22° C | 86% | 1016.8 hPa | 0.25 mm | - | 47 W/m² | - |
| 1787897889 | 16.67° C | 86% | 1016.9 hPa | 0.25 mm | - | 44 W/m² | - |
| 1787897827 | 16.67° C | 85% | 1016.9 hPa | 0.25 mm | - | 37 W/m² | - |
| 1787897767 | 16.67° C | 85% | 1017 hPa | 0 mm | - | 33 W/m² | - |
| 1787897707 | 16.67° C | 85% | 1016.9 hPa | 0 mm | - | 32 W/m² | - |
| 1787897653 | 16.67° C | 85% | 1016.9 hPa | 0 mm | - | 30 W/m² | - |
| 1787897591 | 16.67° C | 85% | 1016.9 hPa | 0 mm | - | 26 W/m² | - |
* Rain latest hour (hover to see other rain measurements)
** Current wind speed in m/s (hover to see current wind gust speed)